"Pseudo-MPEC" for P22mZMk

Created 2026 May 8 13:35:12 UT using Find_Orb

Click here for an explanation of pseudo-MPECs

 
 Astrometry: 
     P22mZMk*0C2026 05 06.30968912 01 45.541-30 54 44.26   ~569Z 21.18wXNEOCPF52
     P22mZMk 0C2026 05 06.32041412 01 46.347-30 54 55.01   ~569Z 21.62wXNEOCPF52
     P22mZMk 0C2026 05 06.33113012 01 47.160-30 55 05.51   ~569Z 21.76wXNEOCPF52
     P22mZMk 0C2026 05 06.34154912 01 47.951-30 55 15.91   ~569Z 21.74wXNEOCPF52
     P22mZMk 0C2026 05 06.40315212 01 52.827-30 56 13.61   ~56GZ 21.26GVNEOCPF52
     P22mZMk 0C2026 05 06.40400412 01 52.890-30 56 14.49   ~56GZ 20.96GVNEOCPF52
     P22mZMk 1C2026 05 07.15178412 03 21.971-31 09 20.30   ~574Z       VNEOCPI52
     P22mZMk 1C2026 05 07.15691112 03 22.414-31 09 25.42   ~574Z       VNEOCPI52
     P22mZMk 1C2026 05 07.16203212 03 22.802-31 09 31.57   ~574Z       VNEOCPI52
     P22mZMk 1C2026 05 07.16715912 03 23.346-31 09 36.83   ~574Z 22.05GVNEOCPI52
     P22mZMk KC2026 05 07.20724312 03 26.697-31 10 19.51   ~575o 21.1 GWNEOCPH01
     P22mZMk KC2026 05 07.21259812 03 27.191-31 10 24.86   ~575o 21.1 GWNEOCPH01
     P22mZMk 0B2026 05 07.78434312 04 41.221-31 19 42.43   ~58C5       WNEOCPM21
     P22mZMk 0B2026 05 07.81584612 04 44.299-31 20 17.72   ~58C5 20.9 GWNEOCPM21
     P22mZMk |C2026 05 07.96112012 05 06.100-31 22 39.60   ~58Co 21.5 GVNEOCP807
     P22mZMk |C2026 05 07.96840012 05 06.820-31 22 48.70   ~58Co 21.0 GVNEOCP807
     P22mZMk |C2026 05 07.97568012 05 07.580-31 22 58.40   ~58Co 21.2 GVNEOCP807
     P22mZMk KB2026 05 08.01256412 05 09.214-31 23 56.02   ~587K 20.6 VZNEOCPY05
     P22mZMk KB2026 05 08.03437512 05 11.427-31 24 18.65   ~587Kx20.3 VZNEOCPY05
     P22mZMk KC2026 05 08.13782712 05 27.519-31 27 07.32   ~58CZ 21.0 GWNEOCPH01
     P22mZMk KC2026 05 08.14441112 05 28.225-31 27 14.93   ~58CZ 20.9 GWNEOCPH01
     P22mZMk KC2026 05 08.15262912 05 29.096-31 27 24.23   ~58CZ 21.1 GWNEOCPH01
     P22mZMk KC2026 05 08.15977712 05 29.851-31 27 32.35   ~58CZ 20.9 GWNEOCPH01
     P22mZMk 1C2026 05 08.17532412 05 31.823-31 27 49.43   ~58CZ       VNEOCPI52
     P22mZMk 1C2026 05 08.17959012 05 32.197-31 27 53.86   ~58CZ       VNEOCPI52
     P22mZMk 1C2026 05 08.18385112 05 32.665-31 27 58.54   ~58CZ       VNEOCPI52
     P22mZMk 1C2026 05 08.18812112 05 33.169-31 28 03.29   ~58CZ 21.11GVNEOCPI52

Station data:
(807) Cerro Tololo Observatory, La Serena  (S30.169133 W70.805900)  Chile.
   Observer R. Holmes. 0.61-m f/6.5 astrograph + CCD.
(F52) Pan-STARRS 2, Haleakala  (N20.707382 W156.255910)  US/Hawaii.
   Observers J. Herman, T. Lowe, P. Minguez, A. Schultz, I. Smith. Measurers
   K. Chambers, T. de Boer, J. Fairlamb, H. Gao, M. Huber, C.-C. Lin, E.
   Magnier, Y. Ramanjooloo, R. Wainscoat, R. Weryk. 1.8-m Ritchey-Chrétien +
   CCD.
(H01) Magdalena Ridge Observatory, Socorro  (N33.984833 W107.189333)  US/New
   Mexico.  Observers W. H. Ryan, E. V. Ryan. Measurer W. H. Ryan. 2.4-m
   f/8.9 reflector + CCD.
(I52) Steward Observatory, Mt. Lemmon Station  (N32.442570 W110.788920)
   US/Arizona. Measurers T. Beuden, V. F. Carvajal, D. Fay, J. B. Fazekas, D.
   C. Fuls, A. R. Gibbs, A. D. Grauer, H. Gröller, J. K. Hogan, R. A.
   Kowalski, S. M. Larson, G. J. Leonard, D. Rankin, R. L. Seaman, F. C.
   Shelly, K. W. Wierzchoś. 1.0-m prime focus + CCD.
(M21) Schiaparelli Southern Observatory, Hakos  (S23.236549 E16.361440)
   Namibia.  Observers A. Aletti, F. Bellini, L. Buzzi, G. Galli. Measurer L.
   Buzzi. 0.36-m f/8.4 reflector + CCD.
(Y05) SONEAR Wykrota-CEAMIG, Serra da Piedade  (S19.824251 W43.690000)
   Brazil.  Observer C. Jacques. 0.45-m f/2.9 reflector + CMO.

Orbital elements:  P22mZMk
   Perihelion 2026 Jun 2.565143 +/- 0.0246 TT = 13:33:48.3 (JD 2461194.065143)
Epoch 2026 May  8.0 TT = JDT 2461168.5   Earth MOID: 0.0392      AutoNEOCP
M 353.265100272 +/- 0.06            (J2000 ecliptic)
n   0.263440718 +/- 0.00276         Peri.  358.356576 +/- 0.16
a   2.409983750 +/- 0.0168          Node   253.927807 +/- 0.11
e   0.56284741 +/- 0.00309          Incl.    5.850722 +/- 0.026
P   3.74129                H 24.24  G  0.15   U  8.8
q 1.053530620 +/- 0.000303    Q 3.766436880 +/- 0.0337
26 of 27 observations 2026 May 6-8 (45.1 hr); mean residual 0".37
Residuals in arcseconds: 
260506 F52  .01+  .05-    260507 I52  .00   .07-    260508 Y05( 1.3+  2.0+)   
260506 F52  .07-  .01+    260507 H01  .01-  .04+    260508 H01  .29-  .12-    
260506 F52  .08-  .17+    260507 H01  .02+  .13+    260508 H01  .16-  .14-    
260506 F52  .13-  .01-    260507 M21  .04-  .38-    260508 H01  .11-  .04-    
260506 F52  .21+  .00     260507 M21  .12+  .00     260508 H01  .09-  .05-    
260506 F52  .12+  .11-    260507 807  .68+  .26+    260508 I52  .24+  .62-    
260507 I52  .21+  .26-    260507 807  .18-  .12+    260508 I52  .71-  .27-    
260507 I52  .06-  .23+    260507 807  .47-  .68-    260508 I52  .45-  .19-    
260507 I52  1.0-  .35-    260508 Y05  .80+  1.4+    260508 I52  .26+  .20-    

Ephemerides (geocentric):
Date (UTC) HH   RA             Dec           delta  r     elong  mag " sig PA
---- --------  ------------   ------------  ------ ------ -----  --- --------
2026 05 08 14  12 06 28.341   -31 34 19.67  .11658 1.0988 138.1 21.3 .182 145
2026 05 08 15  12 06 34.306   -31 35 06.95  .11640 1.0986 138.1 21.3 .186 144
2026 05 08 16  12 06 40.301   -31 35 54.33  .11622 1.0985 138.1 21.3 .192 143
2026 05 08 17  12 06 46.326   -31 36 41.82  .11604 1.0983 138.1 21.3 .197 142
2026 05 08 18  12 06 52.382   -31 37 29.42  .11586 1.0982 138.0 21.3 .202 141
2026 05 08 19  12 06 58.469   -31 38 17.12  .11567 1.0981 138.0 21.3 .208 140
2026 05 08 20  12 07 04.588   -31 39 04.93  .11549 1.0979 138.0 21.3 .214 140
2026 05 08 21  12 07 10.737   -31 39 52.84  .11531 1.0978 138.0 21.3 .220 139
2026 05 08 22  12 07 16.917   -31 40 40.86  .11513 1.0976 138.0 21.3 .226 138
2026 05 08 23  12 07 23.129   -31 41 28.99  .11495 1.0975 138.0 21.3 .233 138
2026 05 09 00  12 07 29.373   -31 42 17.23  .11477 1.0973 138.0 21.3 .240 137
2026 05 09 01  12 07 35.648   -31 43 05.57  .11459 1.0972 138.0 21.3 .247 136
2026 05 09 02  12 07 41.955   -31 43 54.02  .11440 1.0970 138.0 21.3 .254 136
2026 05 09 03  12 07 48.294   -31 44 42.58  .11422 1.0969 138.0 21.3 .261 135
2026 05 09 04  12 07 54.665   -31 45 31.25  .11404 1.0968 138.0 21.3 .269 135
2026 05 09 05  12 08 01.068   -31 46 20.03  .11386 1.0966 137.9 21.2 .276 134
2026 05 09 06  12 08 07.504   -31 47 08.92  .11368 1.0965 137.9 21.2 .284 134
2026 05 09 07  12 08 13.972   -31 47 57.92  .11350 1.0963 137.9 21.2 .293 133
2026 05 09 08  12 08 20.473   -31 48 47.03  .11332 1.0962 137.9 21.2 .301 133
2026 05 09 09  12 08 27.007   -31 49 36.26  .11314 1.0960 137.9 21.2 .310 133
2026 05 09 10  12 08 33.574   -31 50 25.59  .11296 1.0959 137.9 21.2 .319 132
2026 05 09 11  12 08 40.174   -31 51 15.03  .11278 1.0958 137.9 21.2 .328 132
2026 05 09 12  12 08 46.808   -31 52 04.59  .11260 1.0956 137.9 21.2 .337 132
2026 05 09 13  12 08 53.475   -31 52 54.25  .11242 1.0955 137.9 21.2 .346 131
2026 05 09 14  12 09 00.175   -31 53 44.03  .11224 1.0953 137.9 21.2 .356 131
2026 05 09 15  12 09 06.910   -31 54 33.93  .11206 1.0952 137.9 21.2 .366 131
2026 05 09 16  12 09 13.678   -31 55 23.93  .11188 1.0951 137.9 21.2 .376 130
2026 05 09 17  12 09 20.481   -31 56 14.05  .11170 1.0949 137.8 21.2 .387 130
2026 05 09 18  12 09 27.317   -31 57 04.28  .11152 1.0948 137.8 21.2 .397 130
2026 05 09 19  12 09 34.188   -31 57 54.63  .11134 1.0946 137.8 21.2 .408 130
2026 05 09 20  12 09 41.094   -31 58 45.09  .11116 1.0945 137.8 21.2 .419 129
2026 05 09 21  12 09 48.035   -31 59 35.67  .11098 1.0944 137.8 21.2 .430 129
2026 05 09 22  12 09 55.010   -32 00 26.36  .11080 1.0942 137.8 21.2 .442 129
2026 05 09 23  12 10 02.021   -32 01 17.17  .11062 1.0941 137.8 21.2 .454 129
2026 05 10 00  12 10 09.066   -32 02 08.09  .11044 1.0939 137.8 21.2 .466 129
2026 05 10 01  12 10 16.148   -32 02 59.13  .11026 1.0938 137.8 21.2 .478 129
2026 05 10 02  12 10 23.264   -32 03 50.28  .11008 1.0937 137.8 21.2 .490 128
2026 05 10 03  12 10 30.417   -32 04 41.56  .10990 1.0935 137.8 21.2 .503 128
2026 05 10 04  12 10 37.605   -32 05 32.95  .10972 1.0934 137.8 21.2 .516 128
2026 05 10 05  12 10 44.830   -32 06 24.45  .10954 1.0933 137.8 21.2 .529 128
2026 05 10 06  12 10 52.091   -32 07 16.08  .10936 1.0931 137.8 21.2 .543 128
2026 05 10 07  12 10 59.388   -32 08 07.82  .10918 1.0930 137.8 21.2 .557 128
2026 05 10 08  12 11 06.722   -32 08 59.68  .10900 1.0928 137.8 21.2 .571 128
2026 05 10 09  12 11 14.092   -32 09 51.66  .10882 1.0927 137.7 21.2 .585 127
2026 05 10 10  12 11 21.500   -32 10 43.76  .10864 1.0926 137.7 21.1 .599 127
2026 05 10 11  12 11 28.945   -32 11 35.98  .10846 1.0924 137.7 21.1 .614 127
2026 05 10 12  12 11 36.427   -32 12 28.32  .10828 1.0923 137.7 21.1 .629 127
2026 05 10 13  12 11 43.946   -32 13 20.78  .10811 1.0922 137.7 21.1 .645 127